Wetterdaten: Sonntag, 01.02.2015
Datum Zeit Temp. A. Feuchte A. Luftdruck Regen Wind Richtung Richtung Sonnenschein ET UV Solar Taupunkt Windchill Windben Empfang
01.02.2015 00:00 -5,1 C 74 % 987,4 hPa 0,0 l/m 0,0 km/h (0 Bft) S-SW 205 0 min 0,000 mm 0,0 UV-I 0 W/m -9,0 C -5,1 C 0,0 km/h (0 Bft) 0,00 %
01.02.2015 00:15 -5,1 C 74 % 987,3 hPa 0,0 l/m 0,0 km/h (0 Bft) S-SW 196 0 min 0,000 mm 0,0 UV-I 0 W/m -9,0 C -5,1 C 0,0 km/h (0 Bft) 0,00 %
01.02.2015 00:30 -5,1 C 74 % 987,3 hPa 0,0 l/m 0,0 km/h (0 Bft) S-SW 199 0 min 0,000 mm 0,0 UV-I 0 W/m -9,0 C -5,1 C 0,0 km/h (0 Bft) 0,00 %
01.02.2015 00:45 -5,1 C 74 % 987,4 hPa 0,0 l/m 0,0 km/h (0 Bft) S-SW 209 0 min 0,000 mm 0,0 UV-I 0 W/m -9,0 C -5,1 C 0,0 km/h (0 Bft) 0,00 %
01.02.2015 01:00 -5,3 C 73 % 987,5 hPa 0,0 l/m 0,0 km/h (0 Bft) S-SW 193 0 min 0,000 mm 0,0 UV-I 0 W/m -9,4 C -5,3 C 0,0 km/h (0 Bft) 0,00 %
01.02.2015 01:15 -5,7 C 75 % 987,5 hPa 0,0 l/m 0,0 km/h (0 Bft) S-SW 205 0 min 0,000 mm 0,0 UV-I 0 W/m -9,4 C -5,7 C 0,0 km/h (0 Bft) 0,00 %
01.02.2015 01:30 -5,7 C 76 % 987,5 hPa 0,0 l/m 0,0 km/h (0 Bft) SW 220 0 min 0,000 mm 0,0 UV-I 0 W/m -9,2 C -5,7 C 0,0 km/h (0 Bft) 0,00 %
01.02.2015 01:45 -5,4 C 76 % 987,7 hPa 0,0 l/m 0,0 km/h (0 Bft) SW 224 0 min 0,000 mm 0,0 UV-I 0 W/m -8,9 C -5,4 C 0,0 km/h (0 Bft) 0,00 %
01.02.2015 02:00 -5,5 C 75 % 987,5 hPa 0,0 l/m 0,0 km/h (0 Bft) SW 230 0 min 0,000 mm 0,0 UV-I 0 W/m -9,2 C -5,5 C 0,0 km/h (0 Bft) 0,00 %
01.02.2015 02:15 -5,0 C 74 % 987,4 hPa 0,0 l/m 0,0 km/h (0 Bft) W-NW 297 0 min 0,000 mm 0,0 UV-I 0 W/m -8,9 C -5,0 C 0,0 km/h (0 Bft) 0,00 %
01.02.2015 02:30 -5,1 C 73 % 987,5 hPa 0,0 l/m 0,0 km/h (0 Bft) S-SW 211 0 min 0,000 mm 0,0 UV-I 0 W/m -9,2 C -5,1 C 0,0 km/h (0 Bft) 0,00 %
01.02.2015 02:45 -5,5 C 74 % 987,5 hPa 0,0 l/m 0,0 km/h (0 Bft) S-SW 192 0 min 0,000 mm 0,0 UV-I 0 W/m -9,4 C -5,5 C 0,0 km/h (0 Bft) 0,00 %
01.02.2015 03:00 -5,6 C 75 % 987,7 hPa 0,0 l/m 0,0 km/h (0 Bft) S-SW 210 0 min 0,000 mm 0,0 UV-I 0 W/m -9,3 C -5,6 C 0,0 km/h (0 Bft) 0,00 %
01.02.2015 03:15 -5,6 C 75 % 987,5 hPa 0,0 l/m 0,0 km/h (0 Bft) S 179 0 min 0,000 mm 0,0 UV-I 0 W/m -9,3 C -5,6 C 0,0 km/h (0 Bft) 0,00 %
01.02.2015 03:30 -5,4 C 74 % 987,6 hPa 0,0 l/m 0,0 km/h (0 Bft) S-SW 204 0 min 0,000 mm 0,0 UV-I 0 W/m -9,3 C -5,4 C 0,0 km/h (0 Bft) 0,00 %
01.02.2015 03:45 -5,5 C 74 % 987,7 hPa 0,0 l/m 0,0 km/h (0 Bft) SW 216 0 min 0,000 mm 0,0 UV-I 0 W/m -9,4 C -5,5 C 0,0 km/h (0 Bft) 0,00 %
01.02.2015 04:00 -5,4 C 75 % 987,8 hPa 0,0 l/m 0,0 km/h (0 Bft) S 178 0 min 0,000 mm 0,0 UV-I 0 W/m -9,1 C -5,4 C 0,0 km/h (0 Bft) 0,00 %
01.02.2015 04:15 -5,1 C 74 % 987,8 hPa 0,0 l/m 0,0 km/h (0 Bft) W-SW 253 0 min 0,000 mm 0,0 UV-I 0 W/m -9,0 C -5,1 C 0,0 km/h (0 Bft) 0,00 %
01.02.2015 04:30 -4,9 C 74 % 987,8 hPa 0,0 l/m 0,0 km/h (0 Bft) S-SW 211 0 min 0,000 mm 0,0 UV-I 0 W/m -8,8 C -4,9 C 0,0 km/h (0 Bft) 0,00 %
01.02.2015 04:45 -4,8 C 74 % 987,8 hPa 0,0 l/m 0,0 km/h (0 Bft) S-SW 208 0 min 0,000 mm 0,0 UV-I 0 W/m -8,7 C -4,8 C 0,0 km/h (0 Bft) 0,00 %
01.02.2015 05:00 -4,5 C 72 % 987,8 hPa 0,0 l/m 0,0 km/h (0 Bft) S 183 0 min 0,000 mm 0,0 UV-I 0 W/m -8,8 C -4,5 C 0,0 km/h (0 Bft) 0,00 %
01.02.2015 05:15 -4,2 C 72 % 987,9 hPa 0,0 l/m 0,7 km/h (0 Bft) O 101 0 min 0,000 mm 0,0 UV-I 0 W/m -8,5 C -4,2 C 4,0 km/h (1 Bft) 0,00 %
01.02.2015 05:30 -4,2 C 72 % 988,0 hPa 0,0 l/m 0,0 km/h (0 Bft) W-SW 240 0 min 0,000 mm 0,0 UV-I 0 W/m -8,5 C -4,2 C 0,0 km/h (0 Bft) 0,00 %
01.02.2015 05:45 -4,2 C 72 % 987,9 hPa 0,0 l/m 0,0 km/h (0 Bft) S 185 0 min 0,000 mm 0,0 UV-I 0 W/m -8,5 C -4,2 C 0,0 km/h (0 Bft) 0,00 %
01.02.2015 06:00 -4,1 C 72 % 988,2 hPa 0,0 l/m 0,0 km/h (0 Bft) S-SW 210 0 min 0,000 mm 0,0 UV-I 0 W/m -8,4 C -4,1 C 0,0 km/h (0 Bft) 0,00 %
01.02.2015 06:15 -4,0 C 72 % 988,2 hPa 0,0 l/m 0,0 km/h (0 Bft) S-SW 212 0 min 0,000 mm 0,0 UV-I 0 W/m -8,3 C -4,0 C 0,0 km/h (0 Bft) 0,00 %
01.02.2015 06:30 -3,9 C 72 % 988,3 hPa 0,0 l/m 0,0 km/h (0 Bft) SW 222 0 min 0,000 mm 0,0 UV-I 0 W/m -8,2 C -3,9 C 0,0 km/h (0 Bft) 0,00 %
01.02.2015 06:45 -4,0 C 71 % 988,4 hPa 0,0 l/m 0,0 km/h (0 Bft) S-SW 209 0 min 0,000 mm 0,0 UV-I 0 W/m -8,5 C -4,0 C 0,0 km/h (0 Bft) 0,00 %
01.02.2015 07:00 -4,1 C 72 % 988,5 hPa 0,0 l/m 0,0 km/h (0 Bft) SW 216 0 min 0,000 mm 0,0 UV-I 0 W/m -8,4 C -4,1 C 0,0 km/h (0 Bft) 0,00 %
01.02.2015 07:15 -4,1 C 72 % 988,5 hPa 0,0 l/m 0,0 km/h (0 Bft) W-SW 253 0 min 0,000 mm 0,0 UV-I 0 W/m -8,4 C -4,1 C 0,0 km/h (0 Bft) 0,00 %
01.02.2015 07:30 -4,0 C 72 % 988,7 hPa 0,0 l/m 0,0 km/h (0 Bft) S-SW 210 0 min 0,000 mm 0,0 UV-I 0 W/m -8,3 C -4,0 C 0,0 km/h (0 Bft) 0,00 %
01.02.2015 07:45 -4,2 C 73 % 989,3 hPa 0,0 l/m 0,0 km/h (0 Bft) SW 217 0 min 0,000 mm 0,0 UV-I 0 W/m -8,3 C -4,2 C 0,0 km/h (0 Bft) 0,00 %
01.02.2015 08:00 -4,2 C 74 % 989,3 hPa 0,0 l/m 0,0 km/h (0 Bft) S-SO 162 0 min 0,000 mm 0,0 UV-I 6 W/m -8,1 C -4,2 C 0,0 km/h (0 Bft) 0,00 %
01.02.2015 08:15 -3,9 C 73 % 989,2 hPa 0,0 l/m 0,7 km/h (0 Bft) O-SO 113 0 min 0,000 mm 1,0 UV-I 21 W/m -8,0 C -3,9 C 4,0 km/h (1 Bft) 0,00 %
01.02.2015 08:30 -3,6 C 71 % 989,3 hPa 0,0 l/m 0,0 km/h (0 Bft) O-SO 111 0 min 0,000 mm 1,0 UV-I 36 W/m -8,1 C -3,6 C 0,0 km/h (0 Bft) 0,00 %
01.02.2015 08:45 -3,2 C 71 % 989,4 hPa 0,0 l/m 0,0 km/h (0 Bft) S 173 0 min 0,000 mm 1,0 UV-I 51 W/m -7,7 C -3,2 C 0,0 km/h (0 Bft) 0,00 %
01.02.2015 09:00 -2,8 C 74 % 989,5 hPa 0,0 l/m 0,0 km/h (0 Bft) W-SW 252 0 min 0,000 mm 1,0 UV-I 73 W/m -6,8 C -2,8 C 0,0 km/h (0 Bft) 0,00 %
01.02.2015 09:15 -1,7 C 70 % 989,2 hPa 0,0 l/m 0,0 km/h (0 Bft) NW 318 0 min 0,000 mm 1,0 UV-I 93 W/m -6,4 C -1,7 C 0,0 km/h (0 Bft) 0,00 %
01.02.2015 09:30 -1,5 C 71 % 989,4 hPa 0,0 l/m 0,0 km/h (0 Bft) S 172 0 min 0,000 mm 1,0 UV-I 101 W/m -6,1 C -1,5 C 0,0 km/h (0 Bft) 0,00 %
01.02.2015 09:45 -1,4 C 69 % 989,4 hPa 0,0 l/m 0,0 km/h (0 Bft) SO 133 0 min 0,000 mm 1,0 UV-I 119 W/m -6,3 C -1,4 C 0,0 km/h (0 Bft) 0,00 %
01.02.2015 10:00 -1,7 C 69 % 989,7 hPa 0,0 l/m 0,0 km/h (0 Bft) SO 141 0 min 0,000 mm 1,0 UV-I 113 W/m -6,6 C -1,7 C 0,0 km/h (0 Bft) 0,00 %
01.02.2015 10:15 -1,3 C 68 % 989,7 hPa 0,0 l/m 0,0 km/h (0 Bft) S 184 0 min 0,000 mm 2,0 UV-I 97 W/m -6,4 C -1,3 C 0,0 km/h (0 Bft) 0,00 %
01.02.2015 10:30 -1,0 C 67 % 989,8 hPa 0,0 l/m 0,0 km/h (0 Bft) SW 224 15 min 0,000 mm 2,0 UV-I 199 W/m -6,3 C -1,0 C 0,0 km/h (0 Bft) 0,00 %
01.02.2015 10:45 0,8 C 60 % 989,7 hPa 0,0 l/m 0,0 km/h (0 Bft) SW 220 15 min 0,000 mm 2,0 UV-I 210 W/m -6,1 C 0,8 C 0,0 km/h (0 Bft) 0,00 %
01.02.2015 11:00 1,4 C 58 % 989,5 hPa 0,0 l/m 0,0 km/h (0 Bft) S 180 15 min 0,000 mm 2,0 UV-I 215 W/m -5,9 C 1,4 C 0,0 km/h (0 Bft) 0,00 %
01.02.2015 11:15 1,7 C 55 % 988,2 hPa 0,0 l/m 0,0 km/h (0 Bft) S-SW 212 0 min 0,000 mm 2,0 UV-I 220 W/m -6,4 C 1,7 C 0,0 km/h (0 Bft) 0,00 %
01.02.2015 11:30 1,3 C 57 % 988,0 hPa 0,0 l/m 0,0 km/h (0 Bft) S 173 0 min 0,000 mm 2,0 UV-I 225 W/m -6,3 C 1,3 C 0,0 km/h (0 Bft) 0,00 %
01.02.2015 11:45 1,0 C 59 % 988,2 hPa 0,0 l/m 0,0 km/h (0 Bft) W-SW 255 0 min 0,000 mm 2,0 UV-I 220 W/m -6,1 C 1,0 C 0,0 km/h (0 Bft) 0,00 %
01.02.2015 12:00 1,4 C 57 % 988,0 hPa 0,0 l/m 0,0 km/h (0 Bft) S-SW 200 0 min 0,000 mm 2,0 UV-I 215 W/m -6,2 C 1,4 C 0,0 km/h (0 Bft) 0,00 %
01.02.2015 12:15 1,4 C 58 % 988,1 hPa 0,0 l/m 0,0 km/h (0 Bft) S-SW 194 0 min 0,000 mm 2,0 UV-I 220 W/m -5,9 C 1,4 C 0,0 km/h (0 Bft) 0,00 %
01.02.2015 12:30 1,4 C 58 % 988,2 hPa 0,0 l/m 0,0 km/h (0 Bft) W-SW 252 0 min 0,000 mm 2,0 UV-I 215 W/m -5,9 C 1,4 C 0,0 km/h (0 Bft) 0,00 %
01.02.2015 12:45 1,3 C 59 % 988,0 hPa 0,0 l/m 0,0 km/h (0 Bft) SW 220 15 min 0,000 mm 2,0 UV-I 233 W/m -5,8 C 1,3 C 0,0 km/h (0 Bft) 0,00 %
01.02.2015 13:00 1,8 C 58 % 988,0 hPa 0,0 l/m 0,0 km/h (0 Bft) SW 220 0 min 0,000 mm 2,0 UV-I 199 W/m -5,6 C 1,8 C 0,0 km/h (0 Bft) 0,00 %
01.02.2015 13:15 2,0 C 62 % 987,9 hPa 0,0 l/m 0,0 km/h (0 Bft) SW 215 0 min 0,000 mm 2,0 UV-I 210 W/m -4,5 C 2,0 C 0,0 km/h (0 Bft) 0,00 %
01.02.2015 13:30 2,9 C 60 % 987,8 hPa 0,0 l/m 0,0 km/h (0 Bft) S-SW 200 15 min 0,000 mm 2,0 UV-I 220 W/m -4,1 C 2,9 C 0,0 km/h (0 Bft) 0,00 %
01.02.2015 13:45 2,7 C 61 % 988,0 hPa 0,0 l/m 0,0 km/h (0 Bft) SW 216 0 min 0,000 mm 2,0 UV-I 166 W/m -4,1 C 2,7 C 0,0 km/h (0 Bft) 0,00 %
01.02.2015 14:00 3,2 C 59 % 987,7 hPa 0,0 l/m 0,0 km/h (0 Bft) S-SW 200 0 min 0,000 mm 2,0 UV-I 177 W/m -4,0 C 3,2 C 0,0 km/h (0 Bft) 0,00 %
01.02.2015 14:15 3,8 C 57 % 987,9 hPa 0,0 l/m 0,0 km/h (0 Bft) SW 226 0 min 0,000 mm 2,0 UV-I 166 W/m -3,9 C 3,8 C 0,0 km/h (0 Bft) 0,00 %
01.02.2015 14:30 3,3 C 59 % 988,3 hPa 0,0 l/m 0,0 km/h (0 Bft) SW 220 0 min 0,000 mm 1,0 UV-I 107 W/m -3,9 C 3,3 C 0,0 km/h (0 Bft) 0,00 %
01.02.2015 14:45 3,2 C 59 % 988,7 hPa 0,0 l/m 0,0 km/h (0 Bft) S 187 0 min 0,000 mm 1,0 UV-I 102 W/m -4,0 C 3,2 C 0,0 km/h (0 Bft) 0,00 %
01.02.2015 15:00 2,9 C 62 % 988,7 hPa 0,0 l/m 0,0 km/h (0 Bft) S 179 0 min 0,000 mm 1,0 UV-I 85 W/m -3,6 C 2,9 C 0,0 km/h (0 Bft) 0,00 %
01.02.2015 15:15 3,1 C 60 % 988,6 hPa 0,0 l/m 0,0 km/h (0 Bft) S 175 0 min 0,000 mm 1,0 UV-I 102 W/m -3,9 C 3,1 C 0,0 km/h (0 Bft) 0,00 %
01.02.2015 15:30 2,7 C 61 % 989,2 hPa 0,0 l/m 0,0 km/h (0 Bft) S-SW 200 0 min 0,000 mm 1,0 UV-I 89 W/m -4,1 C 2,7 C 0,0 km/h (0 Bft) 0,00 %
01.02.2015 15:45 2,1 C 55 % 989,4 hPa 0,0 l/m 0,0 km/h (0 Bft) S-SW 193 0 min 0,000 mm 1,0 UV-I 79 W/m -6,0 C 2,1 C 0,0 km/h (0 Bft) 0,00 %
01.02.2015 16:00 1,7 C 55 % 989,8 hPa 0,0 l/m 1,8 km/h (1 Bft) W-SW 250 0 min 0,000 mm 1,0 UV-I 61 W/m -6,4 C 1,7 C 4,0 km/h (1 Bft) 0,00 %
01.02.2015 16:15 1,4 C 57 % 990,3 hPa 0,0 l/m 0,0 km/h (0 Bft) W-SW 253 0 min 0,000 mm 0,0 UV-I 41 W/m -6,2 C 1,4 C 0,0 km/h (0 Bft) 0,00 %
01.02.2015 16:30 1,1 C 58 % 990,5 hPa 0,0 l/m 0,0 km/h (0 Bft) S-SW 192 0 min 0,000 mm 0,0 UV-I 21 W/m -6,2 C 1,1 C 0,0 km/h (0 Bft) 0,00 %
01.02.2015 16:45 0,9 C 59 % 990,6 hPa 0,0 l/m 0,0 km/h (0 Bft) SW 226 0 min 0,000 mm 0,0 UV-I 7 W/m -6,2 C 0,9 C 0,0 km/h (0 Bft) 0,00 %
01.02.2015 17:00 0,6 C 60 % 990,9 hPa 0,0 l/m 0,0 km/h (0 Bft) S-SW 200 0 min 0,000 mm 0,0 UV-I 0 W/m -6,3 C 0,6 C 0,0 km/h (0 Bft) 0,00 %
01.02.2015 17:15 0,5 C 61 % 991,3 hPa 0,0 l/m 0,0 km/h (0 Bft) S-SW 192 0 min 0,000 mm 0,0 UV-I 0 W/m -6,1 C 0,5 C 0,0 km/h (0 Bft) 0,00 %
01.02.2015 17:30 0,3 C 63 % 991,2 hPa 0,0 l/m 0,0 km/h (0 Bft) S-SW 199 0 min 0,000 mm 0,0 UV-I 0 W/m -5,9 C 0,3 C 0,0 km/h (0 Bft) 0,00 %
01.02.2015 17:45 0,0 C 63 % 991,7 hPa 0,0 l/m 0,0 km/h (0 Bft) S-SW 201 0 min 0,000 mm 0,0 UV-I 0 W/m -6,2 C 0,0 C 0,0 km/h (0 Bft) 0,00 %
01.02.2015 18:00 -0,4 C 65 % 992,0 hPa 0,0 l/m 0,0 km/h (0 Bft) S 189 0 min 0,000 mm 0,0 UV-I 0 W/m -6,2 C -0,4 C 0,0 km/h (0 Bft) 0,00 %
01.02.2015 18:15 -0,5 C 66 % 992,0 hPa 0,0 l/m 0,0 km/h (0 Bft) S 191 0 min 0,000 mm 0,0 UV-I 0 W/m -6,1 C -0,5 C 0,0 km/h (0 Bft) 0,00 %
01.02.2015 18:30 -0,6 C 66 % 992,2 hPa 0,0 l/m 0,0 km/h (0 Bft) S 189 0 min 0,000 mm 0,0 UV-I 0 W/m -6,1 C -0,6 C 0,0 km/h (0 Bft) 0,00 %
01.02.2015 18:45 -0,9 C 68 % 992,3 hPa 0,0 l/m 0,0 km/h (0 Bft) S 180 0 min 0,000 mm 0,0 UV-I 0 W/m -6,0 C -0,9 C 0,0 km/h (0 Bft) 0,00 %
01.02.2015 19:00 -1,1 C 70 % 992,8 hPa 0,0 l/m 0,0 km/h (0 Bft) S-SW 212 0 min 0,000 mm 0,0 UV-I 0 W/m -5,9 C -1,1 C 0,0 km/h (0 Bft) 0,00 %
01.02.2015 19:15 -1,5 C 72 % 993,1 hPa 0,0 l/m 0,0 km/h (0 Bft) S-SW 195 0 min 0,000 mm 0,0 UV-I 0 W/m -5,9 C -1,5 C 0,0 km/h (0 Bft) 0,00 %
01.02.2015 19:30 -1,7 C 72 % 993,3 hPa 0,0 l/m 0,0 km/h (0 Bft) SW 215 0 min 0,000 mm 0,0 UV-I 0 W/m -6,1 C -1,7 C 0,0 km/h (0 Bft) 0,00 %
01.02.2015 19:45 -1,9 C 72 % 993,4 hPa 0,0 l/m 0,0 km/h (0 Bft) S 189 0 min 0,000 mm 0,0 UV-I 0 W/m -6,3 C -1,9 C 0,0 km/h (0 Bft) 0,00 %
01.02.2015 20:00 -1,8 C 72 % 993,5 hPa 0,0 l/m 0,0 km/h (0 Bft) W-SW 252 0 min 0,000 mm 0,0 UV-I 0 W/m -6,2 C -1,8 C 0,0 km/h (0 Bft) 0,00 %
01.02.2015 20:15 -1,5 C 71 % 993,4 hPa 0,0 l/m 0,0 km/h (0 Bft) S-SW 200 0 min 0,000 mm 0,0 UV-I 0 W/m -6,1 C -1,5 C 0,0 km/h (0 Bft) 0,00 %
01.02.2015 20:30 -1,7 C 71 % 993,4 hPa 0,0 l/m 0,0 km/h (0 Bft) S-SW 193 0 min 0,000 mm 0,0 UV-I 0 W/m -6,2 C -1,7 C 0,0 km/h (0 Bft) 0,00 %
01.02.2015 20:45 -1,5 C 69 % 993,6 hPa 0,0 l/m 0,0 km/h (0 Bft) S 174 0 min 0,000 mm 0,0 UV-I 0 W/m -6,4 C -1,5 C 0,0 km/h (0 Bft) 0,00 %
01.02.2015 21:00 -1,5 C 69 % 993,6 hPa 0,0 l/m 0,0 km/h (0 Bft) S-SW 197 0 min 0,000 mm 0,0 UV-I 0 W/m -6,4 C -1,5 C 0,0 km/h (0 Bft) 0,00 %
01.02.2015 21:15 -1,5 C 70 % 993,8 hPa 0,0 l/m 0,0 km/h (0 Bft) S-SW 192 0 min 0,000 mm 0,0 UV-I 0 W/m -6,2 C -1,5 C 0,0 km/h (0 Bft) 0,00 %
01.02.2015 21:30 -1,9 C 71 % 994,1 hPa 0,0 l/m 0,0 km/h (0 Bft) N-NO 29 0 min 0,000 mm 0,0 UV-I 0 W/m -6,4 C -1,9 C 0,0 km/h (0 Bft) 0,00 %
01.02.2015 21:45 -1,7 C 69 % 994,1 hPa 0,0 l/m 0,4 km/h (0 Bft) SW 220 0 min 0,000 mm 0,0 UV-I 0 W/m -6,6 C -1,7 C 4,0 km/h (1 Bft) 0,00 %
01.02.2015 22:00 -1,6 C 69 % 994,1 hPa 0,0 l/m 0,4 km/h (0 Bft) W-SW 238 0 min 0,000 mm 0,0 UV-I 0 W/m -6,5 C -1,6 C 4,0 km/h (1 Bft) 0,00 %
01.02.2015 22:15 -1,4 C 67 % 993,9 hPa 0,0 l/m 0,0 km/h (0 Bft) S-SW 198 0 min 0,000 mm 0,0 UV-I 0 W/m -6,7 C -1,4 C 0,0 km/h (0 Bft) 0,00 %
01.02.2015 22:30 -1,9 C 69 % 994,3 hPa 0,0 l/m 0,0 km/h (0 Bft) O-NO 65 0 min 0,000 mm 0,0 UV-I 0 W/m -6,8 C -1,9 C 0,0 km/h (0 Bft) 0,00 %
01.02.2015 22:45 -2,4 C 71 % 994,4 hPa 0,0 l/m 0,0 km/h (0 Bft) W-SW 251 0 min 0,000 mm 0,0 UV-I 0 W/m -6,9 C -2,4 C 0,0 km/h (0 Bft) 0,00 %
01.02.2015 23:00 -2,6 C 68 % 994,5 hPa 0,0 l/m 0,0 km/h (0 Bft) S 191 0 min 0,000 mm 0,0 UV-I 0 W/m -7,7 C -2,6 C 0,0 km/h (0 Bft) 0,00 %
01.02.2015 23:15 -2,2 C 70 % 994,6 hPa 0,0 l/m 0,0 km/h (0 Bft) W-SW 253 0 min 0,000 mm 0,0 UV-I 0 W/m -6,9 C -2,2 C 0,0 km/h (0 Bft) 0,00 %
01.02.2015 23:30 -2,0 C 70 % 994,6 hPa 0,0 l/m 0,0 km/h (0 Bft) S-SW 204 0 min 0,000 mm 0,0 UV-I 0 W/m -6,7 C -2,0 C 0,0 km/h (0 Bft) 0,00 %
01.02.2015 23:45 -1,6 C 68 % 994,6 hPa 0,0 l/m 0,0 km/h (0 Bft) S 179 0 min 0,000 mm 0,0 UV-I 0 W/m -6,7 C -1,6 C 0,0 km/h (0 Bft) 0,00 %
_ Min-Zeit 01:15 11:15 00:15 - 00:00 - - - - - - 01:15 01:15 00:00 00:00
Minimum _ -5,7 C 55 % 987,3 hPa - 0,0 km/h (0 Bft) - - - - - - -9,4 C -5,7 C 0,0 km/h (0 Bft) 0,00 %
_ Max-Zeit 14:15 01:30 23:15 00:00 16:00 - - 10:30 00:00 10:15 12:45 15:00 14:15 05:15 00:00
Maximum _ 3,8 C 76 % 994,6 hPa 0,0 l/m 1,8 km/h
W-SW (1 Bft)
- - 15 min 0,000 mm 2,0 UV-I 233 W/m -3,6 C 3,8 C 4,0 km/h
O (1 Bft)
0,00 %
Durchschnitt _ -1,7 C 68 % 989,8 hPa #0,0 l/m 0,0 km/h (0 Bft) W-SW - #1:15 h #0,000 mm 1,5 UV-I 131 W/m -7,0 C -1,7 C 0,2 km/h (0 Bft) 0,00 %